Hourly Data Report for July 27, 2006

TORONTO CITY
ONTARIO

43°40'00.000" N
79°24'00.000" W
112.50 m
6158355
71508
XTO

Download Data

Hourly Data (July 2006)
Hourly Data Report for July 27, 2006
TIME
LST
Temp Definition
°C
Dew Point Definition
°C
Rel Hum Definition
%
Precip. Amount Definition
mm

Wind Dir Definition
10's deg

Wind Spd Definition
km/h
Visibility Definition
km
Stn Press Definition
kPa
Hmdx Definition


Wind Chill Definition


Weather Definition


00:00 22.3 21.4 95   LegendMM LegendMM   99.48 31   LegendNANA
01:00 22.4 21.6 95   LegendMM LegendMM   99.45 31   LegendNANA
02:00 22.1 21.3 95   LegendMM LegendMM   99.44 31   LegendNANA
03:00 22.0 21.2 95   LegendMM LegendMM   99.44 31   LegendNANA
04:00 21.5 21.0 97   LegendMM LegendMM   99.49 30   LegendNANA
05:00 21.4 20.9 97   LegendMM LegendMM   99.52 30   LegendNANA
06:00 21.7 21.2 97   LegendMM LegendMM   99.54 30   LegendNANA
07:00 22.6 21.8 95   LegendMM LegendMM   99.60 32   LegendNANA
08:00 22.8 21.6 93   LegendMM LegendMM   99.65 32   LegendNANA
09:00 24.2 22.2 89   LegendMM LegendMM   99.59 34   LegendNANA
10:00 24.9 22.4 86   LegendMM LegendMM   99.67 35   LegendNANA
11:00 26.8 22.7 78   LegendMM LegendMM   99.67 37   LegendNANA
12:00 26.8 22.6 78   LegendMM LegendMM   99.63 37   LegendNANA
13:00 28.4 22.6 71   LegendMM LegendMM   99.60 38   LegendNANA
14:00 28.5 23.1 73   LegendMM LegendMM   99.60 39   LegendNANA
15:00 27.7 23.5 78   LegendMM LegendMM   99.57 38   LegendNANA
16:00 26.1 24.0 88   LegendMM LegendMM   99.57 37   LegendNANA
17:00 26.2 22.9 82   LegendMM LegendMM   99.58 36   LegendNANA
18:00 25.5 21.8 80   LegendMM LegendMM   99.59 35   LegendNANA
19:00 24.9 22.1 84   LegendMM LegendMM   99.58 34   LegendNANA
20:00 24.1 21.5 85   LegendMM LegendMM   99.66 33   LegendNANA
21:00 23.6 21.5 88   LegendMM LegendMM   99.65 32   LegendNANA
22:00 23.8 22.0 90   LegendMM LegendMM   99.69 33   LegendNANA
23:00 24.0 22.1 89   LegendMM LegendMM   99.76 33   LegendNANA

Notes on Data Quality.

Legend

  • E = Estimated
  • M = Missing
  • NA = Not Available*
  • [empty] = Indicates an unobserved value
Date modified: